TimeMST,TemperatureF,Dew PointF,Humidity,Sea Level PressureIn,VisibilityMPH,Wind Direction,Wind SpeedMPH,Gust SpeedMPH,PrecipitationIn,Events,Conditions,WindDirDegrees,DateUTC
12:53 AM,73.0,36.0,26,29.88,10.0,NE,6.9,-,N/A,,Clear,40,2013-09-30 07:53:00
1:53 AM,70.0,36.0,29,29.89,10.0,Calm,Calm,-,N/A,,Clear,0,2013-09-30 08:53:00
2:53 AM,66.9,36.0,32,29.88,10.0,North,5.8,-,N/A,,Clear,360,2013-09-30 09:53:00
3:53 AM,69.1,34.0,27,29.88,10.0,NNE,4.6,-,N/A,,Clear,30,2013-09-30 10:53:00
4:53 AM,63.0,36.0,37,29.88,10.0,Calm,Calm,-,N/A,,Clear,0,2013-09-30 11:53:00
5:53 AM,63.0,36.0,37,29.89,10.0,Calm,Calm,-,N/A,,Clear,0,2013-09-30 12:53:00
6:53 AM,64.9,36.0,34,29.90,10.0,NE,3.5,-,N/A,,Clear,40,2013-09-30 13:53:00
7:53 AM,71.1,36.0,28,29.91,10.0,Calm,Calm,-,N/A,,Clear,0,2013-09-30 14:53:00
8:53 AM,75.9,37.0,24,29.92,10.0,Calm,Calm,-,N/A,,Clear,0,2013-09-30 15:53:00
9:53 AM,80.1,37.0,21,29.92,10.0,Calm,Calm,-,N/A,,Clear,0,2013-09-30 16:53:00
10:53 AM,84.0,37.9,19,29.90,10.0,South,6.9,-,N/A,,Clear,170,2013-09-30 17:53:00
11:53 AM,86.0,37.0,18,29.88,10.0,SW,5.8,-,N/A,,Clear,230,2013-09-30 18:53:00
12:53 PM,89.1,33.1,14,29.85,10.0,SW,5.8,-,N/A,,Clear,230,2013-09-30 19:53:00
1:53 PM,89.1,33.1,14,29.83,10.0,West,8.1,-,N/A,,Clear,280,2013-09-30 20:53:00
2:53 PM,90.0,32.0,13,29.81,10.0,West,9.2,-,N/A,,Clear,280,2013-09-30 21:53:00
3:53 PM,90.0,33.1,13,29.79,10.0,SW,4.6,-,N/A,,Clear,220,2013-09-30 22:53:00
4:53 PM,89.1,32.0,13,29.78,10.0,SW,8.1,-,N/A,,Clear,220,2013-09-30 23:53:00
5:53 PM,87.1,30.9,13,29.77,10.0,SW,6.9,-,N/A,,Clear,220,2013-10-01 00:53:00
6:53 PM,84.0,30.0,14,29.78,10.0,SW,4.6,-,N/A,,Clear,220,2013-10-01 01:53:00
7:53 PM,81.0,30.9,16,29.79,10.0,Calm,Calm,-,N/A,,Clear,0,2013-10-01 02:53:00
8:53 PM,75.0,36.0,24,29.80,10.0,Calm,Calm,-,N/A,,Clear,0,2013-10-01 03:53:00
9:53 PM,73.0,34.0,24,29.80,10.0,Calm,Calm,-,N/A,,Clear,0,2013-10-01 04:53:00
10:53 PM,70.0,35.1,28,29.81,10.0,Calm,Calm,-,N/A,,Clear,0,2013-10-01 05:53:00
11:53 PM,69.1,34.0,27,29.80,10.0,Calm,Calm,-,N/A,,Clear,0,2013-10-01 06:53:00